This is the latest recevied weather packets stored in our database for station/object K8WEH. If no packets are shown the sender has not sent any weather packets the latest 10 day(s).
| Time | Temp. | Humidity | Pressure | Rain* | Wind** | Luminosity | Snow |
|---|---|---|---|---|---|---|---|
| 1777599002 | 6.67° C | 77% | 1018.1 hPa | 0 mm | - | - | - |
| 1777598702 | 6.67° C | 77% | 1018 hPa | 0 mm | - | - | - |
| 1777598401 | 7.22° C | 77% | 1017.9 hPa | 0 mm | - | - | - |
| 1777598102 | 7.22° C | 77% | 1017.8 hPa | 0 mm | - | - | - |
| 1777597802 | 7.22° C | 76% | 1017.8 hPa | 0 mm | - | - | - |
| 1777597502 | 7.78° C | 76% | 1017.7 hPa | 0 mm | - | - | - |
| 1777597202 | 7.78° C | 74% | 1017.7 hPa | 0 mm | - | - | - |
| 1777596902 | 7.78° C | 74% | 1017.7 hPa | 0 mm | - | - | - |
| 1777596602 | 8.33° C | 74% | 1017.6 hPa | 0 mm | - | - | - |
| 1777596302 | 8.33° C | 74% | 1017.5 hPa | 0 mm | - | - | - |
| 1777596063 | 8.89° C | 74% | 1017.4 hPa | 0 mm | - | - | - |
| 1777595760 | 8.89° C | 71% | 1017.2 hPa | 0 mm | - | - | - |
| 1777595460 | 9.44° C | 70% | 1017 hPa | 0 mm | - | - | - |
| 1777595160 | 9.44° C | 71% | 1017 hPa | 0 mm | - | - | - |
| 1777594860 | 10° C | 70% | 1017 hPa | 0 mm | - | - | - |
| 1777594620 | 10° C | 68% | 1016.9 hPa | 0 mm | - | - | - |
| 1777593357 | 11.67° C | 64% | 1017 hPa | 0 mm | - | - | - |
| 1777593117 | 11.67° C | 66% | 1017 hPa | 0 mm | - | - | - |
| 1777592762 | 12.22° C | 60% | 1017 hPa | 0 mm | - | - | - |
| 1777592457 | 12.22° C | 60% | 1017.1 hPa | 0 mm | - | - | - |
| 1777592157 | 12.22° C | 51% | 1017 hPa | 0 mm | - | - | - |
| 1777591857 | 12.22° C | 49% | 1016.9 hPa | 0 mm | - | - | - |
| 1777591556 | 12.22° C | 50% | 1016.8 hPa | 0 mm | - | - | - |
| 1777591258 | 12.22° C | 50% | 1016.7 hPa | 0 mm | - | - | - |
| 1777590965 | 12.22° C | 49% | 1016.8 hPa | 0 mm | - | - | - |
* Rain latest hour (hover to see other rain measurements)
** Current wind speed in m/s (hover to see current wind gust speed)